Hourly Weather Solwezi

Today, 25 October, Sunday

Time Temperature Precipitation Wind Pressure Humidity
00:00 +31°C° 0 mm 3 mps 712 mmHg 16%
01:00 +32°C° 0 mm 4 mps 711 mmHg 17%
02:00 +30°C° 0 mm 4 mps 711 mmHg 18%
03:00 +29°C° 0 mm 4 mps 711 mmHg 19%
04:00 +29°C° 0 mm 4 mps 711 mmHg 20%
05:00 +28°C° 0 mm 5 mps 712 mmHg 22%
06:00 +29°C° 0 mm 5 mps 712 mmHg 22%
07:00 +29°C° 0 mm 6 mps 712 mmHg 23%
08:00 +30°C° 0 mm 6 mps 713 mmHg 24%
09:00 +32°C° 0 mm 6 mps 713 mmHg 22%
10:00 +34°C° 0 mm 6 mps 713 mmHg 19%
11:00 +36°C° 0 mm 6 mps 713 mmHg 17%
12:00 +38°C° 0 mm 6 mps 712 mmHg 16%
13:00 +39°C° 0 mm 6 mps 711 mmHg 15%
14:00 +39°C° 0 mm 5 mps 710 mmHg 13%
15:00 +39°C° 0 mm 5 mps 710 mmHg 14%
16:00 +38°C° 0 mm 4 mps 710 mmHg 14%
17:00 +38°C° 0 mm 4 mps 710 mmHg 14%
18:00 +37°C° 0 mm 4 mps 710 mmHg 15%
19:00 +35°C° 0 mm 4 mps 711 mmHg 16%
20:00 +34°C° 0 mm 3 mps 711 mmHg 17%
21:00 +33°C° 0 mm 4 mps 711 mmHg 18%
22:00 +33°C° 0 mm 4 mps 711 mmHg 18%
23:00 +32°C° 0 mm 5 mps 712 mmHg 19%

Tomorrow, 26 October, Monday

Time Temperature Precipitation Wind Pressure Humidity
00:00 +30°C° 0 mm 5 mps 712 mmHg 19%
01:00 +30°C° 0 mm 5 mps 711 mmHg 20%
02:00 +29°C° 0 mm 5 mps 711 mmHg 21%
03:00 +29°C° 0 mm 5 mps 711 mmHg 21%
04:00 +28°C° 0 mm 5 mps 712 mmHg 22%
05:00 +28°C° 0 mm 5 mps 712 mmHg 23%
06:00 +28°C° 0 mm 6 mps 712 mmHg 22%
07:00 +29°C° 0 mm 6 mps 713 mmHg 22%
08:00 +29°C° 0 mm 7 mps 713 mmHg 22%
09:00 +32°C° 0 mm 7 mps 713 mmHg 20%
10:00 +34°C° 0 mm 6 mps 713 mmHg 18%
11:00 +36°C° 0 mm 6 mps 714 mmHg 16%
12:00 +37°C° 0 mm 5 mps 713 mmHg 15%
13:00 +39°C° 0 mm 5 mps 712 mmHg 14%
14:00 +38°C° 0 mm 4 mps 711 mmHg 14%
15:00 +38°C° 0 mm 4 mps 711 mmHg 14%
16:00 +38°C° 0 mm 4 mps 711 mmHg 14%
17:00 +38°C° 0 mm 3 mps 710 mmHg 15%
18:00 +37°C° 0 mm 3 mps 711 mmHg 16%
19:00 +35°C° 0 mm 3 mps 711 mmHg 17%
20:00 +34°C° 0 mm 3 mps 711 mmHg 18%
21:00 +33°C° 0 mm 3 mps 711 mmHg 18%
22:00 +33°C° 0 mm 3 mps 712 mmHg 19%
23:00 +31°C° 0 mm 3 mps 712 mmHg 19%

Day after tomorrow, 27 October, Tuesday

Time Temperature Precipitation Wind Pressure Humidity
00:00 +30°C° 0 mm 3 mps 712 mmHg 20%
01:00 +30°C° 0 mm 4 mps 711 mmHg 21%
02:00 +29°C° 0 mm 4 mps 711 mmHg 21%
03:00 +29°C° 0 mm 4 mps 711 mmHg 22%
04:00 +28°C° 0 mm 4 mps 712 mmHg 22%
05:00 +27°C° 0 mm 4 mps 712 mmHg 23%
06:00 +28°C° 0 mm 3 mps 712 mmHg 22%
07:00 +29°C° 0 mm 3 mps 713 mmHg 22%
08:00 +29°C° 0 mm 2 mps 713 mmHg 21%
09:00 +31°C° 0 mm 3 mps 713 mmHg 19%
10:00 +34°C° 0 mm 4 mps 713 mmHg 17%
11:00 +36°C° 0 mm 4 mps 713 mmHg 16%
12:00 +37°C° 0 mm 4 mps 713 mmHg 15%
13:00 +38°C° 0 mm 3 mps 712 mmHg 15%
14:00 +39°C° 0 mm 3 mps 711 mmHg 14%
15:00 +39°C° 0 mm 3 mps 711 mmHg 14%
16:00 +38°C° 0 mm 3 mps 711 mmHg 15%
17:00 +38°C° 0 mm 3 mps 711 mmHg 15%
18:00 +37°C° 0 mm 3 mps 711 mmHg 16%
19:00 +36°C° 0 mm 3 mps 711 mmHg 17%
20:00 +34°C° 0 mm 2 mps 711 mmHg 18%
21:00 +34°C° 0 mm 3 mps 711 mmHg 19%
22:00 +33°C° 0 mm 3 mps 711 mmHg 19%
23:00 +33°C° 0 mm 3 mps 711 mmHg 20%

28 October, Wednesday

Time Temperature Precipitation Wind Pressure Humidity
00:00 +32°C° 0 mm 4 mps 711 mmHg 20%
01:00 +30°C° 0 mm 4 mps 711 mmHg 20%
02:00 +30°C° 0 mm 4 mps 711 mmHg 21%
03:00 +29°C° 0 mm 4 mps 711 mmHg 21%
04:00 +29°C° 0 mm 4 mps 711 mmHg 21%
05:00 +28°C° 0 mm 4 mps 711 mmHg 22%
06:00 +29°C° 0 mm 4 mps 712 mmHg 21%
07:00 +30°C° 0 mm 3 mps 712 mmHg 20%
08:00 +30°C° 0 mm 3 mps 713 mmHg 20%
09:00 +33°C° 0 mm 4 mps 713 mmHg 18%
10:00 +35°C° 0 mm 4 mps 713 mmHg 16%
11:00 +37°C° 0 mm 4 mps 713 mmHg 15%
12:00 +37°C° 0 mm 4 mps 713 mmHg 14%
13:00 +38°C° 0 mm 4 mps 712 mmHg 13%
14:00 +40°C° 0 mm 4 mps 711 mmHg 13%
15:00 +40°C° 0 mm 4 mps 711 mmHg 13%
16:00 +40°C° 0 mm 4 mps 711 mmHg 14%
17:00 +38°C° 0 mm 4 mps 711 mmHg 14%
18:00 +37°C° 0 mm 3 mps 711 mmHg 15%
19:00 +36°C° 0 mm 3 mps 711 mmHg 16%
20:00 +35°C° 0 mm 3 mps 712 mmHg 17%
21:00 +34°C° 0 mm 3 mps 712 mmHg 17%
22:00 +33°C° 0 mm 3 mps 712 mmHg 18%
23:00 +33°C° 0 mm 3 mps 712 mmHg 18%

29 October, Thursday

Time Temperature Precipitation Wind Pressure Humidity
00:00 +32°C° 0 mm 4 mps 712 mmHg 19%
01:00 +32°C° 0 mm 4 mps 712 mmHg 19%
02:00 +30°C° 0 mm 4 mps 711 mmHg 19%
03:00 +30°C° 0 mm 4 mps 711 mmHg 20%
04:00 +29°C° 0 mm 4 mps 712 mmHg 21%
05:00 +29°C° 0 mm 4 mps 712 mmHg 21%
06:00 +30°C° 0 mm 5 mps 712 mmHg 20%
07:00 +32°C° 0 mm 6 mps 713 mmHg 20%
08:00 +32°C° 0 mm 7 mps 713 mmHg 19%
09:00 +34°C° 0 mm 7 mps 714 mmHg 17%
10:00 +36°C° 0 mm 6 mps 714 mmHg 16%
11:00 +39°C° 0 mm 6 mps 714 mmHg 14%
12:00 +40°C° 0 mm 6 mps 713 mmHg 14%
13:00 +41°C° 0 mm 6 mps 712 mmHg 14%
14:00 +41°C° 0 mm 6 mps 712 mmHg 14%
15:00 +41°C° 0 mm 5 mps 711 mmHg 15%
16:00 +40°C° 0 mm 5 mps 711 mmHg 15%
17:00 +40°C° 0 mm 4 mps 711 mmHg 16%
18:00 +38°C° 0 mm 4 mps 711 mmHg 17%
19:00 +36°C° 0 mm 3 mps 712 mmHg 18%
20:00 +35°C° 0 mm 2 mps 712 mmHg 19%
21:00 +35°C° 0 mm 3 mps 712 mmHg 20%
22:00 +34°C° 0 mm 3 mps 712 mmHg 21%
23:00 +33°C° 0 mm 3 mps 712 mmHg 21%

30 October, Friday

Time Temperature Precipitation Wind Pressure Humidity
00:00 +33°C° 0 mm 4 mps 712 mmHg 21%
01:00 +32°C° 0 mm 4 mps 712 mmHg 20%
02:00 +32°C° 0 mm 5 mps 712 mmHg 20%
03:00 +30°C° 0 mm 4 mps 712 mmHg 21%
04:00 +29°C° 0 mm 4 mps 712 mmHg 22%
05:00 +29°C° 0 mm 3 mps 712 mmHg 24%
06:00 +29°C° 0 mm 3 mps 713 mmHg 23%
07:00 +30°C° 0 mm 3 mps 714 mmHg 22%
08:00 +31°C° 0 mm 3 mps 714 mmHg 22%
09:00 +34°C° 0 mm 4 mps 714 mmHg 20%
10:00 +35°C° 0 mm 4 mps 714 mmHg 19%
11:00 +37°C° 0 mm 5 mps 714 mmHg 17%
12:00 +37°C° 0 mm 5 mps 714 mmHg 16%
13:00 +39°C° 0 mm 5 mps 713 mmHg 16%
14:00 +40°C° 0 mm 5 mps 712 mmHg 15%
15:00 +40°C° 0 mm 4 mps 712 mmHg 15%
16:00 +38°C° 0 mm 4 mps 712 mmHg 15%
17:00 +38°C° 0 mm 4 mps 711 mmHg 16%
18:00 +37°C° 0 mm 3 mps 712 mmHg 17%
19:00 +36°C° 0 mm 3 mps 712 mmHg 18%
20:00 +34°C° 0 mm 2 mps 712 mmHg 19%
21:00 +34°C° 0 mm 2 mps 712 mmHg 19%
22:00 +32°C° 0 mm 2 mps 712 mmHg 20%
23:00 +32°C° 0 mm 2 mps 712 mmHg 20%
Show more

We Need Your Consent

Meteoprog and our Service Providers may store and access personal data such as cookies, device identifiers or other similar technologies on your device and process such data to personalise content and ads, as well as provide social media features and to analyse the traffic.

  • Store and/or access information on your device

    Cookies, device identifiers or other information can be stored or accessed on your device for the purposes indicated above.

  • Personalised ads and content, ad and content measurement, audience insights, and products development

    Ads and content can be personalised based on a profile. More data can be added to better personalise ads and content. Ad and content performance can be measured. Insights about the audience who saw the ads and content can be derived. Such data can be used to develop or improve user’s experience, systems and software.

By clicking ‘I Agree’ you will allow the use of indicated cookies, device identifiers, web beacons or other similar technologies. Your settings can be changed in the browser on your device.

For certain purposes, legitimate interests may be relied on, rather than consent. You can read more about this in our Privacy and Cookie Policy.